Regional Weather Roundup
Issued by NWS

Home | Current Version | Previous Version | Graphics & Text | Print | Product List | Glossary On
Versions: 1 2 3 4 5 6 7 8 9 10 11 12 13 14 15 16 17 18 19 20 21 22 23 24 25 26 27 28 29 30 31 32 33 34 35 36 37 38 39 40 41 42 43 44 45 46 47 48 49 50
799
ASUS43 KIND 260109
RWRIN

WEATHER ROUNDUP FOR INDIANA
NATIONAL WEATHER SERVICE INDIANAPOLIS IN
900 PM EDT SAT MAR 25 2017

NOTE: "FAIR" INDICATES FEW OR NO CLOUDS BELOW 12,000 FEET WITH NO
SIGNIFICANT WEATHER AND/OR OBSTRUCTIONS TO VISIBILITY.

* - STATION DOES NOT REPORT WEATHER SUCH AS PRECIPITATION OR FOG.

+ - STATION NOT QUALITY CONTROLLED BY THE NATIONAL WEATHER SERVICE.
    USE DATA WITH CAUTION...ESPECIALLY DEWPOINT AND RELATIVE
    HUMIDITY OBSERVATIONS.

INZ001>003-010>013-019-020-260200-
NORTHWEST INDIANA

CITY           SKY/WX    TMP DP  RH WIND       PRES   REMARKS
GARY /AIRPORT/ LGT RAIN  45  45 100 CALM      29.98S
KNOX *+        MOCLDY    54  37  54 E9        29.99S
LA PORTE +     CLOUDY    51  49  92 E12       30.00S
MICHIGAN CITY+ DRIZZLE   52  50  93 E7        30.00S
MONTICELLO +   CLOUDY    62  56  82 E3        29.95R
RENSSELAER +   CLOUDY    57  55  94 NE6       29.95S
VALPARAISO     CLOUDY    55  53  93 E12G22    29.98S FOG

$$

LMZ046-743>745-260200-
SOUTHERN LAKE MICHIGAN

STATION/POSITION TIME  TEMP    WIND        PRES    WAVE
                       AIR SEA DIR/SP/G            HT
                 (UTC) (F)     (DEG/KT/KT) (MB)    (FT)
BURNS HARBOR     0040   56     110/ 13/ 17 1015.2F
MICHIGAN CITY    0040   54     100/ 12/ 14   N/A

$$

INZ004-005-014>016-021>024-260200-
NORTH CENTRAL INDIANA

CITY           SKY/WX    TMP DP  RH WIND       PRES   REMARKS
GOSHEN         LGT RAIN  48  43  82 E14       30.04F
LOGANSPORT +   RAIN      54  54 100 E13       30.01S
PERU/GRISSOM   RAIN      55  55 100 NE12      29.99R FOG
ROCHESTER +    HVY RAIN  55  52  88 E8        30.03R
SOUTH BEND     CLOUDY    50  47  89 E15       30.02F
WARSAW +       CLOUDY    48  45  87 E13       30.02F

$$

INZ006>009-017-018-025>027-260200-
NORTHEAST INDIANA

CITY           SKY/WX    TMP DP  RH WIND       PRES   REMARKS
ANGOLA *+      MOCLDY    45  43  93 E16       30.06S
AUBURN +       CLOUDY    45  41  87 E14G22    30.06F
FORT WAYNE     CLOUDY    47  42  83 E17       30.03F
HUNTINGTON +   CLOUDY    47  44  88 E15       30.00S
KENDALLVILLE + CLOUDY    44  41  90 E12G18    30.05S

$$

INZ028-029-035-036-043>045-051>053-260200-
WEST CENTRAL INDIANA

CITY           SKY/WX    TMP DP  RH WIND       PRES   REMARKS
CRAWFORDSVL +  CLOUDY    61  53  76 SE8       29.95S
GREENCASTLE +  CLOUDY    61  54  77 SE9       29.97R
LAFAYETTE      LGT RAIN  63  56  78 SE9       29.94S
TERRE HAUTE    CLOUDY    62  53  72 SE6       29.93S

$$

INZ030>032-037>040-046>048-054>057-064-065-260200-
CENTRAL INDIANA

CITY           SKY/WX    TMP DP  RH WIND       PRES   REMARKS
CP ATTERBURY + RAIN      63  55  77 SW8       29.99R
FISHERS *+     CLOUDY    57  57 100 W3        29.98
FRANKFORT +    LGT RAIN  61  58  89 SE8       29.98F
GREENWOOD *+   CLOUDY    61  58  88 SW3       29.99R
INDIANAPOLIS   LGT RAIN  60  56  86 SW13      29.98R
-EAGLE CREEK   LGT RAIN  61  55  81 SW8       29.98S
KOKOMO +       RAIN      57  55  94 N12       30.00F
MARION +       LGT RAIN  60  55  83 NW12      30.02R
MT COMFORT *+  CLOUDY    59  55  88 CALM      29.99S
SHELBYVILLE    CLOUDY    64  53  67 CALM      29.97S
ZIONSVILLE +   CLOUDY    58  56  91 CALM      29.98F

$$

INZ033-034-041-042-049-050-058-059-260200-
EAST CENTRAL INDIANA

CITY           SKY/WX    TMP DP  RH WIND       PRES   REMARKS
MUNCIE         MOCLDY    69  51  52 SE10      29.98R
RICHMOND +     CLOUDY    59  50  72 SE9       30.02S

$$

INZ060-061-067>069-081>083-085>088-260200-
SOUTHWEST INDIANA

CITY           SKY/WX    TMP DP  RH WIND       PRES   REMARKS
EVANSVILLE     CLOUDY    68  52  56 SE7       29.92S
HUNTINGBURG *+ CLOUDY    62  56  80 SE10      29.95S
WASHINGTON +   CLOUDY    64  52  65 CALM      29.93S

$$

INZ062-063-066-070>080-084-089>092-260200-
SOUTH CENTRAL AND SOUTHEAST INDIANA

CITY           SKY/WX    TMP DP  RH WIND       PRES   REMARKS
BLOOMINGTON    LGT RAIN  60  57  89 SE9       29.98R
MADISON *+     CLOUDY    70  46  43 SE6       30.01S
NORTH VERNON + CLOUDY    72  46  40 SE8G20    29.99
SEYMOUR +      RAIN      63  57  82 SW15G26   30.01R

$$





USA.gov is the U.S. government's official web portal to all federal, state and local government web resources and services.